Simultaneous Nadir Overpasses (SNOs) Predictions

Prediction of SNOs between AQUA and NOAA-19 Satellite Orbit:

Table of predicted SNOs for the next 14.0 days since TLE Epoch: 3/2/2018
Index Date (AQUA) Time (AQUA) Lat,Lon (AQUA) SZA (AQUA ) Date (NOAA-19) Time (NOAA-19) Lat,Lon (NOAA-19) SZA (NOAA-19 ) Distance(km) Time Diff (sec)
1 03/03/2018 21:57:24 -80.85, -8.55 90.28 03/03/2018 21:57:25 -80.86, -8.44 90.28 2.12 1
2 03/06/2018 03:31:09 80.86, 87.97 88.87 03/06/2018 03:31:06 80.86, 87.87 88.88 1.87 3
3 03/08/2018 09:04:54 -80.85,-175.31 92.04 03/08/2018 09:04:43 -80.86,-175.26 92.03 1.62 11
4 03/10/2018 14:38:39 80.86, -78.91 87.11 03/10/2018 14:38:25 80.85, -79.00 87.12 1.82 14
5 03/12/2018 20:12:24 -80.85, 17.78 93.81 03/12/2018 20:12:01 -80.85, 17.81 93.79 0.81 23
6 03/12/2018 21:01:50 80.85,-174.58 86.19 03/12/2018 21:03:03 80.86,-174.45 86.15 2.73 73
7 03/15/2018 01:46:08 80.84, 114.41 85.30 03/15/2018 01:45:43 80.85, 114.36 85.32 1.18 25




NCC Satellite Simultaneous Nadir Overpasses (SNOs) Prediction Service
